Regional Weather Roundup
Issued by NWS

Home | Current Version | Previous Version | Text Only | Print | Product List | Glossary Off
Versions: 1 2 3 4 5 6 7 8 9 10 11 12 13 14 15 16 17 18 19 20 21 22 23 24 25 26 27

000
ASUS45 KBOU 011807
RWRCO

WEATHER ROUNDUP FOR COLORADO
NATIONAL WEATHER SERVICE DENVER/BOULDER CO
1200 PM MDT SUN MAY 01 2016

NOTE: "FAIR" INDICATES FEW OR NO CLOUDS BELOW 12000 FEET WITH NO
SIGNIFICANT WEATHER AND/OR OBSTRUCTIONS TO VISIBILITY.

COZ001>005-013-030-031-011900-
...NORTHWEST COLORADO...

CITY           SKY/WX    TMP DP  RH WIND       PRES   REMARKS
CRAIG          NOT AVBL
HAYDEN         FAIR      45  21  39 E22G29    30.12F
MEEKER         FAIR      52  27  38 NE9       30.07F
MOUNT WERNER   NOT AVBL
STEAMBOAT SPGS FAIR      43  23  45 NE20      30.13F
WALDEN         FAIR      34  21  60 E23       30.21F WCI  22
$$

COZ006>008-011-011900-
...WEST CENTRAL VALLEYS...

CITY           SKY/WX    TMP DP  RH WIND       PRES   REMARKS
GRAND JUNCTION PTSUNNY   54  26  34 VRB6      30.04R
MONTROSE       PTSUNNY   49  24  37 E26G36    30.07S
EAGLE          MOSUNNY   48  19  32 NE7       30.11F
RIFLE          FAIR      56  23  27 NE18G25   30.05F
DELTA          NOT AVBL
NUCLA          NOT AVBL
$$

COZ017>023-064>068-011900-
...SOUTHWEST COLORADO...

CITY           SKY/WX    TMP DP  RH WIND       PRES   REMARKS
DURANGO        SNOW      32  32 100 E6        30.10S VSB 1/2 WCI  26
CORTEZ         CLOUDY    48  39  71 S8G17     30.05R
PAGOSA SPRINGS CLOUDY    36  31  82 N7        30.12S
TELLURIDE      CLOUDY    40  30  67 SW7       30.08S
WOLF CREEK PAS LGT SNOW  19  19 100 NE15      30.19R VSB 1   WCI   5
$$

COZ009-010-012-014-032>034-037-058>063-011900-
...CENTRAL COLORADO...

CITY           SKY/WX    TMP DP  RH WIND       PRES   REMARKS
ASPEN          FAIR      45  18  34 SE16      30.09S
BUENA VISTA    LGT SNOW  32  26  78 CALM      30.26S
COPPER MTN     NOT AVBL
BERTHOUD PASS  CLOUDY    12   3  67 MISG      30.19R
COTTONWOOD PAS LGT SNOW  32  23  69 E7        30.25S WCI  26
GUNNISON       FAIR      37  25  60 E14       30.18F
KREMMLING      FAIR      41  18  38 E22G28    30.17F
LEADVILLE      CLOUDY    25  18  74 S16       30.19F WCI  12
MONARCH PASS   CLOUDY    18  14  86 MISG      30.25R
SALIDA         CLOUDY    34  30  87 CALM      30.33F
SUNLIGHT       FAIR      32  30  93 E3        30.18S
WILKERSON PASS FOG      N/A N/A N/A E7        30.26S VSB 1/4
$$

COZ069>075-011900-
...SAN LUIS VALLEY/SANGRE DE CRISTO MOUNTAINS...

CITY           SKY/WX    TMP DP  RH WIND       PRES   REMARKS
ALAMOSA        CLOUDY    38  29  70 W13       30.16S
LA VETA PASS   SNOW      23  21  93 MISG      30.22R VSB 1/4
SAGUACHE       CLOUDY    41  23  48 E7        30.16S
$$

COZ035-036-038>040-011900-
...NORTHERN COLORADO FRONT RANGE...

CITY           SKY/WX    TMP DP  RH WIND       PRES   REMARKS
DENVER INTL AP FLURRIES  36  30  79 NE8       30.32F
DMNS CITY PARK   N/A     35  33  96 N2G8      30.33S
AURORA         CLOUDY    32  32 100 N7        30.33S WCI  26
FRONT RANGE AP CLOUDY    36  32  87 NE8       30.33S
ERIE MUNI ARPT CLOUDY    38  33  83 N3        30.33F
BOULDER MUN AP FLURRIES  36  32  87 NW6       30.33F
CENTENNIAL     LGT SNOW  33  31  92 N9        30.32S FOG     WCI  25
BROOMFIELD     LGT SNOW  34  32  93 N5        30.33F WCI  30
FORT COLLINS   CLOUDY    41  28  60 E6        30.34F
LONGMONT       CLOUDY    40  32  71 N6        30.35F
$$

COZ041-046-047-076>085-087-088-011900-
...PIKES PEAK/PALMER DIVIDE AND SOUTHERN FOOTHILLS...

CITY           SKY/WX    TMP DP  RH WIND       PRES   REMARKS
COLO. SPRINGS  CLOUDY    37  27  67 N16G28    30.28F
A. F. ACADEMY  MIX PCPN  32  28  86 N14       30.28F WCI  22
SCHRIEVER AFB  NOT AVBL
ELLICOTT       NOT AVBL
FALCON         CLOUDY    35  28  74 N16       30.28F WCI  25
FORT CARSON    CLOUDY    41  28  61 N22       30.26F
LIMON          CLOUDY    34  31  88 N17       30.29F WCI  23
MONUMENT HILL  CLOUDY    30  28  93 N10       30.30F FOG     WCI  21
TRINIDAD       CLOUDY    36  29  75 N21       30.28R
$$

COZ042>045-048>051-090-091-011900-
...NORTHEAST COLORADO...

CITY           SKY/WX    TMP DP  RH WIND       PRES   REMARKS
GREELEY ARPT   CLOUDY    43  28  56 NE9       30.33F
AKRON          PTSUNNY   37  31  78 N16       30.29F
BURLINGTON     PTSUNNY   45  33  63 N28G36    30.23F
WRAY           NOT AVBL
STERLING       PTSUNNY   48  30  49 NE20G25   30.29F
HOLYOKE        NOT AVBL
FORT MORGAN    CLOUDY    46  28  50 N17       30.31F
$$

COZ086-089-092>099-011900-
...SOUTHEAST COLORADO...

CITY           SKY/WX    TMP DP  RH WIND       PRES   REMARKS
PUEBLO         CLOUDY    45  30  55 N23       30.28F
LA JUNTA       CLOUDY    45  33  63 N22       30.26F
LAMAR          CLOUDY    46  34  62 N25G33    30.22F
SPRINGFIELD      N/A     39  32  76 N18G26    30.25R
$$




USA.gov is the U.S. government's official web portal to all federal, state and local government web resources and services.